Weather History for Szeged, Hungary

Change the Weather History Date:

Thursday, October 4, 2012

  Actual Average (LRAR) Record (LRAR)
Temperature  
Mean Temperature 60 °F -  
Max Temperature 74 °F 62 °F 86 °F (2006)
Min Temperature 45 °F 41 °F 25 °F (2013)
Degree Days  
Heating Degree Days 6    
Growing Degree Days 10 (Base 50)    
Moisture  
Dew Point 51 °F    
Average Humidity 75    
Maximum Humidity 100    
Minimum Humidity 37    
Precipitation  
Precipitation 0.00 in 0.04 in - ()
Sea Level Pressure  
Sea Level Pressure 30.03 in    
Wind  
Wind Speed 1 mph ()    
Max Wind Speed 4 mph    
Max Gust Speed -    
Visibility 5.3 miles    
Events Fog    
Averages and records for this station are not official NWS values.
T = Trace of Precipitation, MM = Missing Value Source: Averaged Metar Reports

Daily Weather History Graph

Daily Weather History Graph

Search for Another Location

Airport:

Trip Planner

Search our weather history database for the weather conditions in past years. The results will help you decide how hot, cold, wet, or windy it might be!

Date:

Astronomy

Oct. 04, 2012 Rise Set
Actual Time 6:42 AM CEST 6:13 PM CEST
Civil Twilight 6:12 AM CEST 6:43 PM CEST
Nautical Twilight 5:37 AM CEST 7:18 PM CEST
Astronomical Twilight 5:02 AM CEST 7:53 PM CEST
Moon 8:20 PM CEST (10/4) 10:58 AM CEST (10/4)
Length of Visible Light 12h 30m
Length of Day
11h 31m
Waning Gibbous, 84% of the Moon is Illuminated
Oct 4
Waning Gibbous
Oct 8
Last Quarter
Oct 15
New
Oct 22
First Quarter
Oct 29
Full

Hourly Weather History & Observations

Time (CEST) Temp. Dew Point Humidity Pressure Visibility Wind Dir Wind Speed Gust Speed Precip Events Conditions
12:45 AM 51.8 °F 51.8 °F 100% 30.09 in 5.0 mi SSW 2.3 mph - N/A Fog Fog
1:45 AM 51.8 °F 50.0 °F 94% 30.09 in 3.7 mi SSW 2.3 mph - N/A Fog Fog
2:00 AM 51 °F 51 °F 99% 30.09 in 4 mi SSW 2.2 mph - - Fog Patches of Fog
2:45 AM 50.0 °F 50.0 °F 100% 30.06 in 3.7 mi Calm Calm - N/A Fog Fog
3:45 AM 48.2 °F 48.2 °F 100% 30.06 in 3.7 mi WSW 1.2 mph - N/A Fog Fog
4:45 AM 48.2 °F 48.2 °F 100% 30.06 in 3.7 mi Calm Calm - N/A Fog Fog
5:45 AM 46.4 °F 46.4 °F 100% 30.06 in 3.1 mi SSW 1.2 mph - N/A Fog Fog
6:15 AM 44.6 °F 44.6 °F 100% 30.06 in 3.1 mi Calm Calm - N/A Fog Fog
6:37 AM 46.4 °F 44.6 °F 93% 30.06 in 0.5 mi Calm Calm - N/A Fog Patches of Fog
6:45 AM 46.4 °F 46.4 °F 100% 30.06 in 0.5 mi Calm Calm - N/A Fog Patches of Fog
7:15 AM 48.2 °F 48.2 °F 100% 30.06 in 0.9 mi South 1.2 mph - N/A Fog Fog
7:45 AM 48.2 °F 48.2 °F 100% 30.06 in 3.7 mi Calm Calm - N/A   Scattered Clouds
8:00 AM 49 °F 49 °F 99% 30.07 in 4 mi Calm Calm - - Fog Light Fog
8:15 AM 53.6 °F 51.8 °F 94% 30.06 in 3.7 mi Calm Calm - N/A   Scattered Clouds
8:45 AM 57.2 °F 55.4 °F 94% 30.06 in 3.7 mi Calm Calm - N/A   Scattered Clouds
9:15 AM 59.0 °F 53.6 °F 82% 30.06 in 5.0 mi NNE 2.3 mph - N/A   Scattered Clouds
9:45 AM 62.6 °F 53.6 °F 72% 30.06 in - NE 2.3 mph - N/A   Clear
10:15 AM 64.4 °F 53.6 °F 68% 30.06 in - North 2.3 mph - N/A   Clear
10:45 AM 66.2 °F 53.6 °F 64% 30.06 in - NNE 2.3 mph - N/A   Clear
11:15 AM 68.0 °F 51.8 °F 56% 30.06 in - North 2.3 mph - N/A   Clear
11:45 AM 69.8 °F 53.6 °F 56% 30.06 in 6.2 mi South 2.3 mph - N/A   Scattered Clouds
12:15 PM 69.8 °F 53.6 °F 56% 30.06 in 6.2 mi SW 3.5 mph - N/A   Scattered Clouds
12:45 PM 71.6 °F 51.8 °F 50% 30.06 in 6.2 mi SSW 1.2 mph - N/A   Partly Cloudy
1:15 PM 71.6 °F 51.8 °F 50% 30.04 in 6.2 mi NE 2.3 mph - N/A   Partly Cloudy
1:45 PM 71.6 °F 50.0 °F 46% 30.04 in 6.2 mi SE 2.3 mph - N/A   Partly Cloudy
2:00 PM 71 °F 51 °F 37% 30.02 in 16 mi SE 2.2 mph - -   Partly Cloudy
2:15 PM 73.4 °F 50.0 °F 44% 30.04 in 6.2 mi SE 2.3 mph - N/A   Partly Cloudy
2:45 PM 73.4 °F 51.8 °F 47% 30.01 in 6.2 mi NW 3.5 mph - N/A   Partly Cloudy
3:15 PM 73.4 °F 50.0 °F 44% 30.01 in 6.2 mi Calm Calm - N/A   Partly Cloudy
3:45 PM 73.4 °F 50.0 °F 44% 30.01 in - Calm Calm - N/A   Clear
4:15 PM 73.4 °F 46.4 °F 38% 29.98 in - SSE 2.3 mph - N/A   Clear
4:45 PM 73.4 °F 46.4 °F 38% 29.98 in - South 2.3 mph - N/A   Clear
5:15 PM 73.4 °F 46.4 °F 38% 29.98 in - Calm Calm - N/A   Clear
5:45 PM 69.8 °F 50.0 °F 49% 29.98 in - Calm Calm - N/A   Clear
6:45 PM 62.6 °F 51.8 °F 68% 29.98 in - ENE 2.3 mph - N/A   Clear
7:15 PM 59.0 °F 51.8 °F 77% 29.98 in - East 3.5 mph - N/A   Clear
7:45 PM 57.2 °F 51.8 °F 82% 29.98 in - East 2.3 mph - N/A   Clear
8:00 PM 58 °F 52 °F 75% 29.97 in 19 mi East 2.2 mph - -   Partly Cloudy
8:15 PM 57.2 °F 53.6 °F 88% 29.98 in - SE 1.2 mph - N/A   Clear
8:45 PM 57.2 °F 53.6 °F 88% 29.98 in - SSE 1.2 mph - N/A   Clear
9:15 PM 57.2 °F 53.6 °F 88% 29.98 in - SE 2.3 mph - N/A   Clear
9:45 PM 55.4 °F 51.8 °F 88% 29.98 in - SE 1.2 mph - N/A   Clear
10:45 PM 53.6 °F 51.8 °F 94% 29.98 in - SE 3.5 mph - N/A   Clear
11:45 PM 53.6 °F 51.8 °F 94% 30.01 in - South 2.3 mph - N/A   Clear